Year,Month,Day,Hour,Minute,Value (Times are PST for temperature in C)
2012,10,04,00,00,5.40
2012,10,04,00,01,5.40
2012,10,04,00,02,5.40
2012,10,04,00,03,5.40
2012,10,04,00,04,5.40
2012,10,04,00,05,5.40
2012,10,04,00,06,5.40
2012,10,04,00,07,5.40
2012,10,04,00,08,5.40
2012,10,04,00,09,5.30
2012,10,04,00,10,5.30
2012,10,04,00,11,5.30
2012,10,04,00,12,5.30
2012,10,04,00,13,5.30
2012,10,04,00,14,5.30
2012,10,04,00,15,5.20
2012,10,04,00,16,5.20
2012,10,04,00,17,5.20
2012,10,04,00,18,5.20
2012,10,04,00,19,5.20
2012,10,04,00,20,5.20
2012,10,04,00,21,5.20
2012,10,04,00,22,5.20
2012,10,04,00,23,5.20
2012,10,04,00,24,5.20
2012,10,04,00,25,5.20
2012,10,04,00,26,5.30
2012,10,04,00,27,5.30
2012,10,04,00,28,5.30
2012,10,04,00,29,5.30
2012,10,04,00,30,5.30
2012,10,04,00,31,5.30
2012,10,04,00,32,5.20
2012,10,04,00,33,5.20
2012,10,04,00,34,5.20
2012,10,04,00,35,5.20
2012,10,04,00,36,5.20
2012,10,04,00,37,5.10
2012,10,04,00,38,5.10
2012,10,04,00,39,5.10
2012,10,04,00,40,5.10
2012,10,04,00,41,5.10
2012,10,04,00,42,5.10
2012,10,04,00,43,5.10
2012,10,04,00,44,5.10
2012,10,04,00,45,5.10
2012,10,04,00,46,5.10
2012,10,04,00,47,5.10
2012,10,04,00,48,5.10
2012,10,04,00,49,5.10
2012,10,04,00,50,5.10
2012,10,04,00,51,5.10
2012,10,04,00,52,5.10
2012,10,04,00,53,5.10
2012,10,04,00,54,5.10
2012,10,04,00,55,5.00
2012,10,04,00,56,5.00
2012,10,04,00,57,5.00
2012,10,04,00,58,5.00
2012,10,04,00,59,5.00
2012,10,04,01,00,5.00
2012,10,04,01,01,4.90
2012,10,04,01,02,4.90
2012,10,04,01,03,4.90
2012,10,04,01,04,4.90
2012,10,04,01,05,4.90
2012,10,04,01,06,4.90
2012,10,04,01,07,4.90
2012,10,04,01,08,4.90
2012,10,04,01,09,4.90
2012,10,04,01,10,4.80
2012,10,04,01,11,4.80
2012,10,04,01,12,4.80
2012,10,04,01,13,4.80
2012,10,04,01,14,4.80
2012,10,04,01,15,4.80
2012,10,04,01,16,4.80
2012,10,04,01,17,4.80
2012,10,04,01,18,4.80
2012,10,04,01,19,4.70
2012,10,04,01,20,4.70
2012,10,04,01,21,4.70
2012,10,04,01,22,4.70
2012,10,04,01,23,4.70
2012,10,04,01,24,4.70
2012,10,04,01,25,4.70
2012,10,04,01,26,4.70
2012,10,04,01,27,4.70
2012,10,04,01,28,4.60
2012,10,04,01,29,4.60
2012,10,04,01,30,4.60
2012,10,04,01,31,4.60
2012,10,04,01,32,4.60
2012,10,04,01,33,4.60
2012,10,04,01,34,4.60
2012,10,04,01,35,4.60
2012,10,04,01,36,4.60
2012,10,04,01,37,4.60
2012,10,04,01,38,4.60
2012,10,04,01,39,4.60
2012,10,04,01,40,4.60
2012,10,04,01,41,4.60
2012,10,04,01,42,4.50
2012,10,04,01,43,4.50
2012,10,04,01,44,4.50
2012,10,04,01,45,4.50
2012,10,04,01,46,4.50
2012,10,04,01,47,4.50
2012,10,04,01,48,4.50
2012,10,04,01,49,4.50
2012,10,04,01,50,4.50
2012,10,04,01,51,4.50
2012,10,04,01,52,4.50
2012,10,04,01,53,4.50
2012,10,04,01,54,4.40
2012,10,04,01,55,4.40
2012,10,04,01,56,4.40
2012,10,04,01,57,4.40
2012,10,04,01,58,4.40
2012,10,04,01,59,4.40
2012,10,04,02,00,4.40
2012,10,04,02,01,4.40
2012,10,04,02,02,4.40
2012,10,04,02,03,4.40
2012,10,04,02,04,4.40
2012,10,04,02,05,4.40
2012,10,04,02,06,4.40
2012,10,04,02,07,4.40
2012,10,04,02,08,4.30
2012,10,04,02,09,4.30
2012,10,04,02,10,4.30
2012,10,04,02,11,4.30
2012,10,04,02,12,4.30
2012,10,04,02,13,4.30
2012,10,04,02,14,4.30
2012,10,04,02,15,4.30
2012,10,04,02,16,4.30
2012,10,04,02,17,4.30
2012,10,04,02,18,4.30
2012,10,04,02,19,4.30
2012,10,04,02,20,4.20
2012,10,04,02,21,4.20
2012,10,04,02,22,4.20
2012,10,04,02,23,4.20
2012,10,04,02,24,4.20
2012,10,04,02,25,4.20
2012,10,04,02,26,4.20
2012,10,04,02,27,4.30
2012,10,04,02,28,4.30
2012,10,04,02,29,4.30
2012,10,04,02,30,4.30
2012,10,04,02,31,4.30
2012,10,04,02,32,4.30
2012,10,04,02,33,4.30
2012,10,04,02,34,4.30
2012,10,04,02,35,4.20
2012,10,04,02,36,4.20
2012,10,04,02,37,4.20
2012,10,04,02,38,4.20
2012,10,04,02,39,4.20
2012,10,04,02,40,4.20
2012,10,04,02,41,4.20
2012,10,04,02,42,4.20
2012,10,04,02,43,4.20
2012,10,04,02,44,4.20
2012,10,04,02,45,4.20
2012,10,04,02,46,4.10
2012,10,04,02,47,4.10
2012,10,04,02,48,4.10
2012,10,04,02,49,4.10
2012,10,04,02,50,4.10
2012,10,04,02,51,4.10
2012,10,04,02,52,4.10
2012,10,04,02,53,4.00
2012,10,04,02,54,4.00
2012,10,04,02,55,4.00
2012,10,04,02,56,4.00
2012,10,04,02,57,4.00
2012,10,04,02,58,4.00
2012,10,04,02,59,4.00
2012,10,04,03,00,4.00
2012,10,04,03,01,4.00
2012,10,04,03,02,3.90
2012,10,04,03,03,3.90
2012,10,04,03,04,4.00
2012,10,04,03,05,3.90
2012,10,04,03,06,3.90
2012,10,04,03,07,3.90
2012,10,04,03,08,3.90
2012,10,04,03,09,3.90
2012,10,04,03,10,3.90
2012,10,04,03,11,3.90
2012,10,04,03,12,3.90
2012,10,04,03,13,3.90
2012,10,04,03,14,3.90
2012,10,04,03,15,3.90
2012,10,04,03,16,3.90
2012,10,04,03,17,3.90
2012,10,04,03,18,3.90
2012,10,04,03,19,3.90
2012,10,04,03,20,3.90
2012,10,04,03,21,3.90
2012,10,04,03,22,3.90
2012,10,04,03,23,3.90
2012,10,04,03,24,3.80
2012,10,04,03,25,3.80
2012,10,04,03,26,3.80
2012,10,04,03,27,3.80
2012,10,04,03,28,3.80
2012,10,04,03,29,3.70
2012,10,04,03,30,3.70
2012,10,04,03,31,3.70
2012,10,04,03,32,3.70
2012,10,04,03,33,3.70
2012,10,04,03,34,3.60
2012,10,04,03,35,3.60
2012,10,04,03,36,3.60
2012,10,04,03,37,3.50
2012,10,04,03,38,3.50
2012,10,04,03,39,3.50
2012,10,04,03,40,3.50
2012,10,04,03,41,3.50
2012,10,04,03,42,3.40
2012,10,04,03,43,3.40
2012,10,04,03,44,3.40
2012,10,04,03,45,3.40
2012,10,04,03,49,3.50
2012,10,04,03,50,3.50
2012,10,04,03,51,3.50
2012,10,04,03,52,3.50
2012,10,04,03,53,3.40
2012,10,04,03,54,3.40
2012,10,04,03,55,3.40
2012,10,04,03,56,3.40
2012,10,04,03,57,3.40
2012,10,04,03,58,3.40
2012,10,04,03,59,3.40
2012,10,04,04,00,3.40
2012,10,04,04,01,3.40
2012,10,04,04,02,3.40
2012,10,04,04,03,3.40
2012,10,04,04,04,3.40
2012,10,04,04,05,3.30
2012,10,04,04,06,3.30
2012,10,04,04,07,3.30
2012,10,04,04,08,3.30
2012,10,04,04,09,3.30
2012,10,04,04,10,3.30
2012,10,04,04,11,3.30
2012,10,04,04,12,3.30
2012,10,04,04,13,3.30
2012,10,04,04,14,3.30
2012,10,04,04,15,3.30
2012,10,04,04,16,3.30
2012,10,04,04,17,3.30
2012,10,04,04,18,3.20
2012,10,04,04,19,3.20
2012,10,04,04,20,3.20
2012,10,04,04,21,3.20
2012,10,04,04,22,3.20
2012,10,04,04,23,3.20
2012,10,04,04,24,3.20
2012,10,04,04,25,3.20
2012,10,04,04,26,3.20
2012,10,04,04,27,3.10
2012,10,04,04,28,3.10
2012,10,04,04,29,3.10
2012,10,04,04,30,3.10
2012,10,04,04,31,3.10
2012,10,04,04,32,3.10
2012,10,04,04,33,3.10
2012,10,04,04,34,3.10
2012,10,04,04,35,3.00
2012,10,04,04,36,3.00
2012,10,04,04,37,3.00
2012,10,04,04,38,3.00
2012,10,04,04,39,3.00
2012,10,04,04,40,2.90
2012,10,04,04,41,2.90
2012,10,04,04,42,2.90
2012,10,04,04,43,2.90
2012,10,04,04,44,2.90
2012,10,04,04,45,2.90
2012,10,04,04,46,2.90
2012,10,04,04,47,2.80
2012,10,04,04,48,2.80
2012,10,04,04,49,2.80
2012,10,04,04,50,2.80
2012,10,04,04,51,2.80
2012,10,04,04,52,2.80
2012,10,04,04,53,2.80
2012,10,04,04,54,2.80
2012,10,04,04,55,2.80
2012,10,04,04,56,2.80
2012,10,04,04,57,2.70
2012,10,04,04,58,2.70
2012,10,04,04,59,2.70
2012,10,04,05,00,2.70
2012,10,04,05,01,2.70
2012,10,04,05,02,2.70
2012,10,04,05,03,2.70
2012,10,04,05,04,2.70
2012,10,04,05,05,2.70
2012,10,04,05,06,2.70
2012,10,04,05,07,2.70
2012,10,04,05,08,2.70
2012,10,04,05,09,2.70
2012,10,04,05,10,2.70
2012,10,04,05,11,2.70
2012,10,04,05,12,2.70
2012,10,04,05,13,2.70
2012,10,04,05,14,2.70
2012,10,04,05,15,2.70
2012,10,04,05,16,2.70
2012,10,04,05,17,2.70
2012,10,04,05,18,2.70
2012,10,04,05,19,2.70
2012,10,04,05,20,2.70
2012,10,04,05,21,2.70
2012,10,04,05,22,2.70
2012,10,04,05,23,2.70
2012,10,04,05,24,2.70
2012,10,04,05,25,2.70
2012,10,04,05,26,2.70
2012,10,04,05,27,2.60
2012,10,04,05,28,2.60
2012,10,04,05,29,2.60
2012,10,04,05,30,2.60
2012,10,04,05,31,2.60
2012,10,04,05,32,2.60
2012,10,04,05,33,2.60
2012,10,04,05,34,2.60
2012,10,04,05,35,2.60
2012,10,04,05,36,2.60
2012,10,04,05,37,2.60
2012,10,04,05,38,2.60
2012,10,04,05,39,2.60
2012,10,04,05,40,2.60
2012,10,04,05,41,2.60
2012,10,04,05,42,2.60
2012,10,04,05,43,2.60
2012,10,04,05,44,2.60
2012,10,04,05,45,2.60
2012,10,04,05,46,2.50
2012,10,04,05,47,2.50
2012,10,04,05,48,2.40
2012,10,04,05,49,2.40
2012,10,04,05,50,2.40
2012,10,04,05,51,2.30
2012,10,04,05,52,2.30
2012,10,04,05,53,2.30
2012,10,04,05,54,2.20
2012,10,04,05,55,2.20
2012,10,04,05,56,2.20
2012,10,04,05,57,2.20
2012,10,04,05,58,2.20
2012,10,04,05,59,2.20
2012,10,04,06,00,2.20
2012,10,04,06,01,2.20
2012,10,04,06,02,2.20
2012,10,04,06,03,2.20
2012,10,04,06,04,2.30
2012,10,04,06,05,2.30
2012,10,04,06,06,2.30
2012,10,04,06,07,2.30
2012,10,04,06,08,2.40
2012,10,04,06,09,2.40
2012,10,04,06,10,2.40
2012,10,04,06,11,2.50
2012,10,04,06,12,2.50
2012,10,04,06,13,2.50
2012,10,04,06,14,2.60
2012,10,04,06,15,2.60
2012,10,04,06,16,2.60
2012,10,04,06,17,2.60
2012,10,04,06,18,2.60
2012,10,04,06,19,2.70
2012,10,04,06,20,2.70
2012,10,04,06,21,2.70
2012,10,04,06,22,2.70
2012,10,04,06,23,2.70
2012,10,04,06,24,2.70
2012,10,04,06,25,2.70
2012,10,04,06,26,2.70
2012,10,04,06,27,2.70
2012,10,04,06,28,2.70
2012,10,04,06,29,2.70
2012,10,04,06,30,2.70
2012,10,04,06,31,2.70
2012,10,04,06,32,2.70
2012,10,04,06,33,2.70
2012,10,04,06,34,2.70
2012,10,04,06,35,2.70
2012,10,04,06,36,2.70
2012,10,04,06,37,2.70
2012,10,04,06,38,2.70
2012,10,04,06,39,2.70
2012,10,04,06,40,2.70
2012,10,04,06,41,2.70
2012,10,04,06,42,2.70
2012,10,04,06,43,2.70
2012,10,04,06,44,2.70
2012,10,04,06,45,2.70
2012,10,04,06,46,2.70
2012,10,04,06,47,2.70
2012,10,04,06,48,2.70
2012,10,04,06,49,2.70
2012,10,04,06,50,2.70
2012,10,04,06,51,2.70
2012,10,04,06,52,2.70
2012,10,04,06,53,2.70
2012,10,04,06,54,2.70
2012,10,04,06,55,2.70
2012,10,04,06,56,2.70
2012,10,04,06,57,2.70
2012,10,04,06,58,2.70
2012,10,04,06,59,2.70
2012,10,04,07,00,2.70
2012,10,04,07,01,2.80
2012,10,04,07,02,2.80
2012,10,04,07,03,2.80
2012,10,04,07,04,2.80
2012,10,04,07,05,2.80
2012,10,04,07,06,2.80
2012,10,04,07,07,2.80
2012,10,04,07,08,2.80
2012,10,04,07,09,2.80
2012,10,04,07,10,2.70
2012,10,04,07,11,2.70
2012,10,04,07,12,2.70
2012,10,04,07,13,2.60
2012,10,04,07,14,2.60
2012,10,04,07,15,2.60
2012,10,04,07,16,2.60
2012,10,04,07,17,2.50
2012,10,04,07,18,2.50
2012,10,04,07,19,2.50
2012,10,04,07,20,2.40
2012,10,04,07,21,2.40
2012,10,04,07,22,2.40
2012,10,04,07,23,2.40
2012,10,04,07,24,2.40
2012,10,04,07,25,2.40
2012,10,04,07,26,2.30
2012,10,04,07,27,2.30
2012,10,04,07,28,2.30
2012,10,04,07,29,2.30
2012,10,04,07,30,2.30
2012,10,04,07,31,2.30
2012,10,04,07,32,2.30
2012,10,04,07,33,2.30
2012,10,04,07,34,2.30
2012,10,04,07,35,2.30
2012,10,04,07,36,2.30
2012,10,04,07,37,2.30
2012,10,04,07,38,2.30
2012,10,04,07,39,2.30
2012,10,04,07,40,2.30
2012,10,04,07,41,2.30
2012,10,04,07,42,2.30
2012,10,04,07,43,2.30
2012,10,04,07,44,2.30
2012,10,04,07,45,2.30
2012,10,04,07,46,2.40
2012,10,04,07,47,2.40
2012,10,04,07,48,2.40
2012,10,04,07,49,2.40
2012,10,04,07,50,2.40
2012,10,04,07,51,2.40
2012,10,04,07,52,2.40
2012,10,04,07,53,2.40
2012,10,04,07,54,2.40
2012,10,04,07,55,2.40
2012,10,04,07,56,2.40
2012,10,04,07,57,2.40
2012,10,04,07,58,2.50
2012,10,04,07,59,2.50
2012,10,04,08,00,2.50
2012,10,04,08,01,2.60
2012,10,04,08,02,2.60
2012,10,04,08,03,2.60
2012,10,04,08,04,2.60
2012,10,04,08,05,2.60
2012,10,04,08,06,2.60
2012,10,04,08,07,2.60
2012,10,04,08,08,2.70
2012,10,04,08,09,2.70
2012,10,04,08,10,2.70
2012,10,04,08,11,2.70
2012,10,04,08,12,2.80
2012,10,04,08,13,2.80
2012,10,04,08,14,2.80
2012,10,04,08,15,2.90
2012,10,04,08,16,2.90
2012,10,04,08,17,3.00
2012,10,04,08,18,3.00
2012,10,04,08,19,3.10
2012,10,04,08,20,3.10
2012,10,04,08,21,3.20
2012,10,04,08,22,3.20
2012,10,04,08,23,3.30
2012,10,04,08,24,3.40
2012,10,04,08,25,3.40
2012,10,04,08,26,3.50
2012,10,04,08,27,3.60
2012,10,04,08,28,3.70
2012,10,04,08,29,3.70
2012,10,04,08,30,3.80
2012,10,04,08,31,3.90
2012,10,04,08,32,4.00
2012,10,04,08,33,4.00
2012,10,04,08,34,4.20
2012,10,04,08,35,4.30
2012,10,04,08,36,4.40
2012,10,04,08,37,4.50
2012,10,04,08,38,4.60
2012,10,04,08,39,4.70
2012,10,04,08,40,4.70
2012,10,04,08,41,4.80
2012,10,04,08,42,4.90
2012,10,04,08,43,5.00
2012,10,04,08,44,5.00
2012,10,04,08,45,5.10
2012,10,04,08,46,5.20
2012,10,04,08,47,5.30
2012,10,04,08,48,5.30
2012,10,04,08,49,5.40
2012,10,04,08,50,5.50
2012,10,04,08,51,5.60
2012,10,04,08,52,5.70
2012,10,04,08,53,5.70
2012,10,04,08,54,5.80
2012,10,04,08,55,5.90
2012,10,04,08,56,6.00
2012,10,04,08,57,6.10
2012,10,04,08,58,6.20
2012,10,04,08,59,6.30
2012,10,04,09,00,6.30
2012,10,04,09,01,6.40
2012,10,04,09,02,6.50
2012,10,04,09,03,6.60
2012,10,04,09,04,6.70
2012,10,04,09,05,6.80
2012,10,04,09,06,6.90
2012,10,04,09,07,7.00
2012,10,04,09,08,7.00
2012,10,04,09,09,7.20
2012,10,04,09,10,7.20
2012,10,04,09,11,7.30
2012,10,04,09,12,7.50
2012,10,04,09,13,7.60
2012,10,04,09,14,7.70
2012,10,04,09,15,7.80
2012,10,04,09,16,7.90
2012,10,04,09,17,8.00
2012,10,04,09,18,8.10
2012,10,04,09,19,8.20
2012,10,04,09,20,8.30
2012,10,04,09,21,8.30
2012,10,04,09,22,8.40
2012,10,04,09,23,8.50
2012,10,04,09,24,8.60
2012,10,04,09,25,8.80
2012,10,04,09,26,8.90
2012,10,04,09,27,9.00
2012,10,04,09,28,9.10
2012,10,04,09,29,9.30
2012,10,04,09,30,9.40
2012,10,04,09,31,9.50
2012,10,04,09,32,9.60
2012,10,04,09,33,9.70
2012,10,04,09,34,9.80
2012,10,04,09,35,10.00
2012,10,04,09,36,10.10
2012,10,04,09,37,10.20
2012,10,04,09,38,10.30
2012,10,04,09,39,10.50
2012,10,04,09,40,10.60
2012,10,04,09,41,10.70
2012,10,04,09,42,10.80
2012,10,04,09,43,10.90
2012,10,04,09,44,11.00
2012,10,04,09,45,11.10
2012,10,04,09,46,11.20
2012,10,04,09,47,11.20
2012,10,04,09,48,11.30
2012,10,04,09,49,11.30
2012,10,04,09,50,11.40
2012,10,04,09,51,11.50
2012,10,04,09,52,11.50
2012,10,04,09,53,11.60
2012,10,04,09,54,11.70
2012,10,04,09,55,11.70
2012,10,04,09,56,11.80
2012,10,04,09,57,12.00
2012,10,04,09,58,12.10
2012,10,04,09,59,12.20
2012,10,04,10,00,12.40
2012,10,04,10,01,12.50
2012,10,04,10,02,12.60
2012,10,04,10,03,12.70
2012,10,04,10,04,12.80
2012,10,04,10,05,13.00
2012,10,04,10,06,13.10
2012,10,04,10,07,13.10
2012,10,04,10,08,13.20
2012,10,04,10,09,13.30
2012,10,04,10,10,13.40
2012,10,04,10,11,13.50
2012,10,04,10,12,13.60
2012,10,04,10,13,13.70
2012,10,04,10,14,13.80
2012,10,04,10,15,13.90
2012,10,04,10,16,14.00
2012,10,04,10,17,14.10
2012,10,04,10,18,14.10
2012,10,04,10,19,14.20
2012,10,04,10,20,14.20
2012,10,04,10,21,14.20
2012,10,04,10,22,14.20
2012,10,04,10,23,14.20
2012,10,04,10,24,14.20
2012,10,04,10,25,14.20
2012,10,04,10,26,14.20
2012,10,04,10,27,14.20
2012,10,04,10,28,14.20
2012,10,04,10,29,14.20
2012,10,04,10,30,14.30
2012,10,04,10,31,14.40
2012,10,04,10,32,14.50
2012,10,04,10,33,14.50
2012,10,04,10,34,14.50
2012,10,04,10,35,14.50
2012,10,04,10,36,14.50
2012,10,04,10,37,14.40
2012,10,04,10,38,14.40
2012,10,04,10,39,14.40
2012,10,04,10,40,14.50
2012,10,04,10,41,14.60
2012,10,04,10,42,14.70
2012,10,04,10,43,14.80
2012,10,04,10,44,14.80
2012,10,04,10,45,14.90
2012,10,04,10,46,15.00
2012,10,04,10,47,15.00
2012,10,04,10,48,15.00
2012,10,04,10,49,15.00
2012,10,04,10,50,15.00
2012,10,04,10,51,15.10
2012,10,04,10,52,15.20
2012,10,04,10,53,15.30
2012,10,04,10,54,15.40
2012,10,04,10,55,15.50
2012,10,04,10,56,15.60
2012,10,04,10,57,15.70
2012,10,04,10,58,15.80
2012,10,04,10,59,15.90
2012,10,04,11,00,16.00
2012,10,04,11,01,16.10
2012,10,04,11,02,16.20
2012,10,04,11,03,16.30
2012,10,04,11,04,16.30
2012,10,04,11,05,16.30
2012,10,04,11,06,16.30
2012,10,04,11,07,16.30
2012,10,04,11,08,16.40
2012,10,04,11,09,16.40
2012,10,04,11,10,16.40
2012,10,04,11,11,16.40
2012,10,04,11,12,16.40
2012,10,04,11,13,16.40
2012,10,04,11,14,16.40
2012,10,04,11,15,16.30
2012,10,04,11,16,16.20
2012,10,04,11,17,16.10
2012,10,04,11,18,16.00
2012,10,04,11,19,16.00
2012,10,04,11,20,16.00
2012,10,04,11,21,16.00
2012,10,04,11,22,16.00
2012,10,04,11,23,15.90
2012,10,04,11,24,15.80
2012,10,04,11,25,15.80
2012,10,04,11,26,15.80
2012,10,04,11,27,15.80
2012,10,04,11,28,15.80
2012,10,04,11,29,15.70
2012,10,04,11,30,15.70
2012,10,04,11,31,15.70
2012,10,04,11,32,15.70
2012,10,04,11,33,15.80
2012,10,04,11,34,15.90
2012,10,04,11,35,15.90
2012,10,04,11,36,16.00
2012,10,04,11,37,16.00
2012,10,04,11,38,15.90
2012,10,04,11,39,15.90
2012,10,04,11,40,16.00
2012,10,04,11,41,16.10
2012,10,04,11,42,16.20
2012,10,04,11,43,16.30
2012,10,04,11,44,16.40
2012,10,04,11,45,16.50
2012,10,04,11,46,16.60
2012,10,04,11,47,16.70
2012,10,04,11,48,16.70
2012,10,04,11,49,16.70
2012,10,04,11,50,16.60
2012,10,04,11,51,16.60
2012,10,04,11,52,16.60
2012,10,04,11,53,16.60
2012,10,04,11,54,16.50
2012,10,04,11,55,16.50
2012,10,04,11,56,16.40
2012,10,04,11,57,16.40
2012,10,04,11,58,16.50
2012,10,04,11,59,16.50
2012,10,04,12,00,16.60
2012,10,04,12,01,16.70
2012,10,04,12,02,16.80
2012,10,04,12,03,16.80
2012,10,04,12,04,16.80
2012,10,04,12,05,16.80
2012,10,04,12,06,16.80
2012,10,04,12,07,16.90
2012,10,04,12,08,16.90
2012,10,04,12,09,17.00
2012,10,04,12,10,16.90
2012,10,04,12,11,17.00
2012,10,04,12,12,17.00
2012,10,04,12,13,17.00
2012,10,04,12,14,17.10
2012,10,04,12,15,17.10
2012,10,04,12,16,17.10
2012,10,04,12,17,17.20
2012,10,04,12,18,17.30
2012,10,04,12,19,17.30
2012,10,04,12,20,17.40
2012,10,04,12,21,17.40
2012,10,04,12,22,17.50
2012,10,04,12,23,17.50
2012,10,04,12,24,17.50
2012,10,04,12,25,17.60
2012,10,04,12,26,17.70
2012,10,04,12,27,17.70
2012,10,04,12,28,17.80
2012,10,04,12,29,17.90
2012,10,04,12,30,17.90
2012,10,04,12,31,17.80
2012,10,04,12,32,17.80
2012,10,04,12,33,17.70
2012,10,04,12,34,17.70
2012,10,04,12,35,17.70
2012,10,04,12,36,17.70
2012,10,04,12,37,17.60
2012,10,04,12,38,17.60
2012,10,04,12,39,17.60
2012,10,04,12,40,17.60
2012,10,04,12,41,17.70
2012,10,04,12,42,17.70
2012,10,04,12,43,17.80
2012,10,04,12,44,17.90
2012,10,04,12,45,17.90
2012,10,04,12,46,18.00
2012,10,04,12,47,18.10
2012,10,04,12,48,18.10
2012,10,04,12,49,18.10
2012,10,04,12,50,18.20
2012,10,04,12,51,18.20
2012,10,04,12,52,18.20
2012,10,04,12,53,18.20
2012,10,04,12,54,18.20
2012,10,04,12,55,18.20
2012,10,04,12,56,18.20
2012,10,04,12,57,18.20
2012,10,04,12,58,18.20
2012,10,04,12,59,18.20
2012,10,04,13,00,18.20
2012,10,04,13,01,18.20
2012,10,04,13,02,18.30
2012,10,04,13,03,18.30
2012,10,04,13,04,18.30
2012,10,04,13,05,18.30
2012,10,04,13,06,18.30
2012,10,04,13,07,18.40
2012,10,04,13,08,18.40
2012,10,04,13,09,18.40
2012,10,04,13,10,18.40
2012,10,04,13,11,18.50
2012,10,04,13,12,18.60
2012,10,04,13,13,18.70
2012,10,04,13,14,18.80
2012,10,04,13,15,18.90
2012,10,04,13,16,18.90
2012,10,04,13,17,18.90
2012,10,04,13,18,18.90
2012,10,04,13,19,18.90
2012,10,04,13,20,18.80
2012,10,04,13,21,18.80
2012,10,04,13,22,18.70
2012,10,04,13,23,18.70
2012,10,04,13,24,18.70
2012,10,04,13,25,18.70
2012,10,04,13,26,18.70
2012,10,04,13,27,18.70
2012,10,04,13,28,18.70
2012,10,04,13,29,18.80
2012,10,04,13,30,18.80
2012,10,04,13,31,18.80
2012,10,04,13,32,18.90
2012,10,04,13,33,19.00
2012,10,04,13,34,19.00
2012,10,04,13,35,19.10
2012,10,04,13,36,19.10
2012,10,04,13,37,19.20
2012,10,04,13,38,19.10
2012,10,04,13,39,19.20
2012,10,04,13,40,19.10
2012,10,04,13,41,19.10
2012,10,04,13,42,19.00
2012,10,04,13,43,18.90
2012,10,04,13,44,18.70
2012,10,04,13,45,18.50
2012,10,04,13,46,18.30
2012,10,04,13,47,18.20
2012,10,04,13,48,18.10
2012,10,04,13,49,18.20
2012,10,04,13,50,18.20
2012,10,04,13,51,18.10
2012,10,04,13,52,18.20
2012,10,04,13,53,18.20
2012,10,04,13,54,18.30
2012,10,04,13,55,18.20
2012,10,04,13,56,18.20
2012,10,04,13,57,18.10
2012,10,04,13,58,18.10
2012,10,04,13,59,18.10
2012,10,04,14,00,18.10
2012,10,04,14,01,18.00
2012,10,04,14,02,17.90
2012,10,04,14,03,17.80
2012,10,04,14,04,17.80
2012,10,04,14,05,17.80
2012,10,04,14,06,17.80
2012,10,04,14,07,17.90
2012,10,04,14,08,17.90
2012,10,04,14,09,17.90
2012,10,04,14,10,18.00
2012,10,04,14,11,17.90
2012,10,04,14,12,17.80
2012,10,04,14,13,17.80
2012,10,04,14,14,17.90
2012,10,04,14,15,18.00
2012,10,04,14,16,18.10
2012,10,04,14,17,18.20
2012,10,04,14,18,18.30
2012,10,04,14,19,18.40
2012,10,04,14,20,18.50
2012,10,04,14,21,18.60
2012,10,04,14,22,18.60
2012,10,04,14,23,18.70
2012,10,04,14,24,18.70
2012,10,04,14,25,18.70
2012,10,04,14,26,18.70
2012,10,04,14,27,18.70
2012,10,04,14,28,18.70
2012,10,04,14,29,18.70
2012,10,04,14,30,18.60
2012,10,04,14,31,18.70
2012,10,04,14,32,18.70
2012,10,04,14,33,18.80
2012,10,04,14,34,18.60
2012,10,04,14,35,18.50
2012,10,04,14,36,18.40
2012,10,04,14,37,18.50
2012,10,04,14,38,18.50
2012,10,04,14,39,18.50
2012,10,04,14,40,18.50
2012,10,04,14,41,18.50
2012,10,04,14,42,18.50
2012,10,04,14,43,18.50
2012,10,04,14,44,18.50
2012,10,04,14,45,18.50
2012,10,04,14,46,18.50
2012,10,04,14,47,18.60
2012,10,04,14,48,18.60
2012,10,04,14,49,18.60
2012,10,04,14,50,18.50
2012,10,04,14,51,18.50
2012,10,04,14,52,18.40
2012,10,04,14,53,18.40
2012,10,04,14,54,18.50
2012,10,04,14,55,18.50
2012,10,04,14,56,18.60
2012,10,04,14,57,18.60
2012,10,04,14,58,18.60
2012,10,04,14,59,18.60
2012,10,04,15,00,18.60
2012,10,04,15,01,18.70
2012,10,04,15,02,18.70
2012,10,04,15,03,18.70
2012,10,04,15,04,18.60
2012,10,04,15,05,18.60
2012,10,04,15,06,18.60
2012,10,04,15,07,18.70
2012,10,04,15,08,18.70
2012,10,04,15,09,18.70
2012,10,04,15,10,18.70
2012,10,04,15,11,18.70
2012,10,04,15,12,18.60
2012,10,04,15,13,18.60
2012,10,04,15,14,18.60
2012,10,04,15,15,18.70
2012,10,04,15,16,18.70
2012,10,04,15,17,18.70
2012,10,04,15,18,18.70
2012,10,04,15,19,18.70
2012,10,04,15,20,18.70
2012,10,04,15,21,18.70
2012,10,04,15,22,18.70
2012,10,04,15,23,18.70
2012,10,04,15,24,18.80
2012,10,04,15,25,18.80
2012,10,04,15,26,18.80
2012,10,04,15,27,18.80
2012,10,04,15,28,18.90
2012,10,04,15,29,18.90
2012,10,04,15,30,18.90
2012,10,04,15,31,18.80
2012,10,04,15,32,18.70
2012,10,04,15,33,18.80
2012,10,04,15,34,18.80
2012,10,04,15,35,18.80
2012,10,04,15,36,18.70
2012,10,04,15,37,18.70
2012,10,04,15,38,18.70
2012,10,04,15,39,18.70
2012,10,04,15,40,18.70
2012,10,04,15,41,18.70
2012,10,04,15,42,18.70
2012,10,04,15,43,18.70
2012,10,04,15,44,18.70
2012,10,04,15,45,18.80
2012,10,04,15,46,18.90
2012,10,04,15,47,18.90
2012,10,04,15,48,19.00
2012,10,04,15,49,19.00
2012,10,04,15,50,19.10
2012,10,04,15,51,19.10
2012,10,04,15,52,19.10
2012,10,04,15,53,19.10
2012,10,04,15,54,19.10
2012,10,04,15,55,19.10
2012,10,04,15,56,19.10
2012,10,04,15,57,19.10
2012,10,04,15,58,19.00
2012,10,04,15,59,19.10
2012,10,04,16,00,19.00
2012,10,04,16,01,19.00
2012,10,04,16,02,19.00
2012,10,04,16,03,19.10
2012,10,04,16,04,19.20
2012,10,04,16,05,19.20
2012,10,04,16,06,19.30
2012,10,04,16,07,19.30
2012,10,04,16,08,19.40
2012,10,04,16,09,19.40
2012,10,04,16,10,19.40
2012,10,04,16,11,19.50
2012,10,04,16,12,19.60
2012,10,04,16,13,19.60
2012,10,04,16,14,19.70
2012,10,04,16,15,19.70
2012,10,04,16,16,19.70
2012,10,04,16,17,19.70
2012,10,04,16,18,19.60
2012,10,04,16,19,19.50
2012,10,04,16,20,19.40
2012,10,04,16,21,19.30
2012,10,04,16,22,19.30
2012,10,04,16,23,19.20
2012,10,04,16,24,19.10
2012,10,04,16,25,19.00
2012,10,04,16,26,18.90
2012,10,04,16,27,18.90
2012,10,04,16,28,18.80
2012,10,04,16,29,18.80
2012,10,04,16,30,18.80
2012,10,04,16,31,18.80
2012,10,04,16,32,18.80
2012,10,04,16,33,18.80
2012,10,04,16,34,18.90
2012,10,04,16,35,19.00
2012,10,04,16,36,19.00
2012,10,04,16,37,19.10
2012,10,04,16,38,19.10
2012,10,04,16,39,19.10
2012,10,04,16,40,19.10
2012,10,04,16,41,19.10
2012,10,04,16,42,19.10
2012,10,04,16,43,19.10
2012,10,04,16,44,19.10
2012,10,04,16,45,19.00
2012,10,04,16,46,19.00
2012,10,04,16,47,19.00
2012,10,04,16,48,18.90
2012,10,04,16,49,18.90
2012,10,04,16,50,18.90
2012,10,04,16,51,18.90
2012,10,04,16,52,18.90
2012,10,04,16,53,18.90
2012,10,04,16,54,18.90
2012,10,04,16,55,18.90
2012,10,04,16,56,18.90
2012,10,04,16,57,18.90
2012,10,04,16,58,18.90
2012,10,04,16,59,18.90
2012,10,04,17,00,18.90
2012,10,04,17,01,18.90
2012,10,04,17,02,18.80
2012,10,04,17,03,18.80
2012,10,04,17,04,18.80
2012,10,04,17,05,18.70
2012,10,04,17,06,18.70
2012,10,04,17,07,18.60
2012,10,04,17,08,18.60
2012,10,04,17,09,18.60
2012,10,04,17,10,18.50
2012,10,04,17,11,18.50
2012,10,04,17,12,18.40
2012,10,04,17,13,18.30
2012,10,04,17,14,18.30
2012,10,04,17,15,18.20
2012,10,04,17,16,18.20
2012,10,04,17,17,18.10
2012,10,04,17,18,18.10
2012,10,04,17,19,18.10
2012,10,04,17,20,18.00
2012,10,04,17,21,18.00
2012,10,04,17,22,17.90
2012,10,04,17,23,17.90
2012,10,04,17,24,17.80
2012,10,04,17,25,17.80
2012,10,04,17,26,17.80
2012,10,04,17,27,17.70
2012,10,04,17,28,17.70
2012,10,04,17,29,17.70
2012,10,04,17,30,17.70
2012,10,04,17,31,17.60
2012,10,04,17,32,17.60
2012,10,04,17,33,17.50
2012,10,04,17,34,17.40
2012,10,04,17,35,17.40
2012,10,04,17,36,17.30
2012,10,04,17,37,17.20
2012,10,04,17,38,17.20
2012,10,04,17,39,17.10
2012,10,04,17,40,17.00
2012,10,04,17,41,16.90
2012,10,04,17,42,16.90
2012,10,04,17,43,16.80
2012,10,04,17,44,16.80
2012,10,04,17,45,16.70
2012,10,04,17,46,16.70
2012,10,04,17,47,16.70